#timestamp,LO_Frequency,Hit,StdDev 
1589968815.6,286047000.7,N
1589968835.4,286047002.5,N
1589968855.2,286047001.1,N
1589968875.1,286047000.5,N
1589968876.0,286047000.5,N
1589968895.8,286047000.4,N
1589968915.7,286047000.0,N
1589968935.5,286046999.9,N
1589968955.3,286047000.9,N
1589968975.2,286047000.3,N
1589968995.0,286047000.6,N
1589968995.9,286047000.6,N
1589969015.8,286046998.1,N
1589969035.6,286046998.1,N
1589969055.4,286047002.7,N
1589969075.3,286047003.9,Y
1589969095.1,286047004.4,P
1589969115.9,286047000.1,N
1589969135.7,286047001.9,N
1589969155.5,286047001.3,N
1589969175.4,286047004.0,N
1589969195.2,286047003.6,N
1589969215.0,286047005.2,Y
1589969215.9,286047005.2,P
1589969235.8,286046999.7,N
1589969255.6,286046999.3,N
1589969275.5,286046996.8,N
1589969295.3,286046996.8,N
1589969315.1,286047001.2,N
1589969335.9,286046998.8,N
1589969355.7,286046999.4,N
1589969375.6,286046996.7,N
1589969395.4,286046995.7,N
1589969415.2,286046995.8,N
1589969435.1,286046997.6,N
1589969436.0,286046997.6,N
1589969455.8,286046993.3,N
1589969475.6,286046996.0,N
1589969495.5,286046993.8,N
1589969515.3,286046994.1,N
1589969535.2,286046993.9,N
1589969555.9,286046994.7,N
1589969575.7,286046993.1,N
1589969595.6,286046992.9,N
1589969615.4,286046992.5,N
1589969635.2,286046990.5,N
1589969655.1,286046992.5,N
1589969656.0,286046992.5,N
1589969675.8,286046992.5,N
1589969695.7,286046990.6,N
1589969715.5,286046991.9,N
1589969735.3,286046994.7,N
1589969755.2,286046994.7,N
1589969775.9,286046994.4,N
1589969795.7,286046994.3,N
1589969815.6,286046992.4,N
1589969835.4,286046990.6,Y
1589969855.3,286046997.9,P
1589969875.1,286046997.2,N
1589969876.0,286046997.2,N
1589969895.8,286046995.4,Y
1589969915.7,286046999.8,P
1589969935.5,286047000.7,N
1589969955.3,286047000.9,N
1589969975.2,286047000.4,N
1589969995.0,286047002.0,N
1589969995.9,286047002.0,N
1589970015.8,286047001.5,N
1589970035.6,286047002.2,N
1589970055.4,286047000.0,N
1589970075.3,286047001.3,N
1589970095.1,286047001.3,N
1589970115.9,286047001.4,N
1589970135.7,286047001.6,N
1589970155.5,286047004.3,Y
1589970175.4,286047001.6,P
1589970195.2,286047003.5,P
1589970215.0,286047003.9,P
1589970215.9,286047003.9,Y
1589970235.8,286047000.7,P
1589970255.6,286046998.4,N
1589970275.5,286047000.0,N
1589970295.3,286047001.0,N
1589970315.1,286047000.1,N
1589970335.9,286047002.4,N
1589970355.7,286047002.8,N
1589970375.5,286047000.3,N
1589970395.4,286047002.0,N
1589970415.2,286047001.6,N
1589970435.1,286047002.8,N
1589970436.0,286047002.8,N
1589970455.8,286047002.0,N
1589970475.6,286047004.4,Y
1589970495.5,286047000.8,P
1589970515.3,286046998.3,P
1589970535.1,286046998.6,N
1589970555.9,286046999.3,N
1589970575.7,286047002.5,N
1589970595.6,286046999.7,N
1589970615.4,286047002.8,N
1589970635.2,286047000.4,N
1589970655.1,286047002.8,N
1589970656.0,286047002.8,N
1589970675.8,286047001.1,N
1589970695.6,286047001.0,N
1589970715.5,286047000.5,N
1589970735.3,286046998.5,N
1589970755.2,286046998.3,N
1589970775.9,286046998.2,N
1589970795.7,286046998.7,N
1589970815.6,286046998.7,N
1589970835.4,286046999.0,N
1589970855.2,286046998.6,N
1589970875.1,286046999.9,N
1589970876.0,286046999.9,N
1589970895.8,286047000.3,N
1589970915.7,286047000.6,N
1589970935.5,286047000.1,N
1589970955.3,286046998.3,N
1589970975.2,286046998.5,N
1589970995.0,286047000.1,N
1589970995.9,286047000.1,N
1589971015.7,286047000.1,N
1589971035.6,286046999.7,N
1589971055.4,286046998.1,N
1589971075.3,286047001.1,N
1589971095.1,286047001.0,N
1589971096.0,286047001.0,N
1589971115.8,286046998.2,N
1589971135.7,286046998.3,N
1589971155.5,286046996.9,N
1589971175.3,286047001.2,N
1589971195.2,286046998.3,N
1589971215.0,286046998.4,N
1589971215.9,286046998.4,N
1589971235.8,286046998.8,N
1589971255.6,286047000.7,N
1589971275.4,286047002.8,N
1589971295.3,286047002.4,N
1589971315.1,286047002.4,N
1589971335.8,286047000.2,N
1589971355.7,286047000.1,N
1589971375.5,286047000.1,N
1589971395.4,286046998.6,N
1589971415.2,286046996.7,N
1589971435.0,286046997.1,N
1589971435.9,286046997.1,N
1589971455.8,286046997.1,N
1589971475.6,286046997.3,N
1589971495.5,286046997.1,N
1589971515.3,286046999.1,N
1589971535.1,286046999.4,N
1589971555.9,286046997.0,N
1589971575.7,286046998.2,N
1589971595.5,286046996.6,N
1589971615.4,286046998.5,N
1589971635.2,286046998.3,N
1589971655.1,286046998.2,N
1589971656.0,286046998.2,N
1589971675.8,286046998.2,N
1589971695.6,286047000.8,N
1589971715.5,286047000.4,N
1589971735.3,286046998.3,N
1589971755.1,286046998.9,N
1589971775.9,286046999.3,N
1589971795.7,286046999.5,N
1589971815.6,286046998.1,N
1589971835.4,286047001.1,N
1589971855.2,286046998.1,N
1589971875.1,286046998.9,N
1589971876.0,286046998.9,N
1589971895.8,286046998.6,N
1589971915.6,286046998.9,N
1589971935.5,286046998.5,N
1589971955.3,286047001.1,N
1589971975.2,286046998.1,N
1589971995.9,286046999.7,N
1589972015.7,286047000.8,N
1589972035.6,286047000.2,N
1589972055.4,286047000.4,N
1589972075.2,286047000.8,N
1589972095.1,286047000.8,N
1589972096.0,286047000.8,N
1589972115.8,286047000.8,N
1589972135.7,286046998.8,N
1589972155.5,286046999.5,N
1589972175.3,286047001.2,N
1589972195.2,286046998.6,N
1589972215.9,286046998.1,N
1589972235.7,286046998.9,N
1589972255.6,286046999.4,N
1589972275.4,286046999.0,N
1589972295.2,286046999.6,N
1589972315.1,286046997.1,N
1589972316.0,286046997.1,N
1589972335.8,286046996.7,N
1589972355.7,286046999.5,N
1589972375.5,286046999.9,N
1589972395.3,286046998.3,N
